Regional Weather Roundup
Issued by NWS Charleston, SC

Current Version | Previous Version | Text Only | Print | Product List | Glossary On
Versions: 1 2 3 4 5 6 7 8 9 10 11 12 13 14 15 16 17 18 19 20 21 22 23 24 25 26 27 28 29 30 31 32 33 34 35 36 37 38 39 40 41 42 43 44 45 46 47 48 49 50
000 ASUS42 KCHS 210912 RWRCHS Regional Weather Roundup National Weather Service Charleston SC 400 AM EST SUN JAN 21 2018 NOTE: "fair" indicates few or no clouds below 12,000 feet with no significant weather and/or obstructions to visibility. Not all stations are quality controlled. Use data with caution, especially dewpoint observations. SCZ027-030-031-034>040-042>050-211000- ...Southeast South Carolina... CITY SKY/WX TMP DP RH WIND PRES REMARKS N Charleston MOCLDY 49 29 46 NW5 30.23S Waterfront Prk NOT AVBL Mount Pleasant FAIR 48 32 53 CALM 30.24S Johns Island FAIR 50 32 50 W5 30.24S Pinopolis N/A 45 36 70 VRB2 30.16R Moncks Corner FAIR 45 30 57 SW3 30.23R Summerville FAIR 41 34 75 CALM 30.24S Beaufort MCAS FAIR 49 33 54 CALM 30.23F Beaufort Arpt FAIR 46 32 57 SW3 30.23F Hilton Head Is FAIR 50 28 43 W5 30.24F Walterboro FAIR 43 34 70 CALM 30.24F Allendale FAIR 41 39 93 CALM 30.22S ...Southern Midlands and Pee Dee... CITY SKY/WX TMP DP RH WIND PRES REMARKS Georgetown FAIR 43 32 65 CALM 30.24R Kingstree FAIR 32 32 100 CALM 30.23S Orangeburg FAIR 37 35 92 CALM 30.22S Barnwell N/A 37 36 93 CALM 30.23R Aiken FAIR 34 34 100 CALM 30.25S Manning FAIR 36 32 87 MISG 30.22F Columbia FAIR 33 31 92 CALM 30.22S Sumter FAIR 37 30 77 CALM 30.20S Florence FAIR 34 30 85 SW3 30.22F Myrtle Beach FAIR 40 32 73 CALM 30.24S N Myrtle Beach FAIR 39 34 82 CALM 30.22F $$ GAZ063-065-086>088-099>101-113>116-118-119-134>141-150-211000- ...Southeast Georgia... CITY SKY/WX TMP DP RH WIND PRES REMARKS Savannah Arpt FAIR 48 29 47 W3 30.24F Hunter AAF MOCLDY 47 30 50 CALM 30.21F Fort Stewart CLOUDY 49 29 45 CALM 30.23R Statesboro FAIR 47 32 56 W3 30.23F Sylvania FAIR 44 37 78 CALM 30.24S Claxton FAIR 42 39 89 CALM 30.24S ...CSRA, Central and far Southeast Georgia... CITY SKY/WX TMP DP RH WIND PRES REMARKS Thomson FAIR 33 31 94 CALM 30.27S Augusta-Bush FAIR 34 34 100 CALM 30.23S Augusta-Daniel FAIR 44 38 79 SE3 30.22S Swainsboro FAIR 41 41 100 CALM 30.24S FOG Vidalia FAIR 50 34 53 CALM 30.24S Eastman FAIR 42 34 73 CALM 30.26F Hazlehurst FAIR 47 32 55 CALM 30.23S Alma FAIR 45 35 68 CALM 30.25R Waycross FAIR 45 36 70 CALM 30.25F Jesup FAIR 46 36 66 CALM 30.26R Baxley FAIR 43 34 70 CALM 30.25R Brunswick FAIR 48 32 53 CALM 30.26S Saint Simons FAIR 48 38 68 CALM 30.25S $$ SCZ027-028-034-036>038-045-046-048>050-GAZ119-141-211000- ...Lake and Supplemental Coastal Observations... STATION/POSITION TIME TEMP WIND PRES WAVE SWELL AIR SEA DIR/SP/G HT/PER HT/PER/DIR (UTC) (F) (DEG/KT/KT) (MB) (FT/S) (FT/S/D) Winyah Bay 0745 49 290/ 6 1023.0 Lake Murray 0820 41 CALM 1022.7 ACE Basin NERRS 0745 46 CALM 1024.0 Fort Pulaski 0848 49 46 280/ 3/ 3 1024.1F Sapelo Island 0800 46 20/ 1 1024.0 $$ ANZ835-935-AMZ111-154-330-350-352-354-370-450-454-472-211000- ...C-MAN and Buoy Observations... STATION/POSITION TIME TEMP WIND PRES WAVE SWELL AIR SEA DIR/SP/G HT/PER HT/PER/DIR (UTC) (F) (DEG/KT/KT) (MB) (FT/S) (FT/S/D) Buoy 41004 0850 60 70 280/ 14/ 16 1023.7R 3/ 4 2/120/10 Buoy 41008 0850 50 50 240/ 4/ 6 1024.3R 1/11 2/ 80/11 Folly Beach CMAN 0800 49 240/ 4/ 5 1024.2F Capers Nearshore 0808 46 49 260/ 4/ 8 1023.3F Fripp Nearshore 0808 44 45 260/ 4/ 6 1022.9S STATION/POSITION TIME TEMP WIND PRES WAVE SWELL AIR SEA DIR/SP/G HT/PER HT/PER/DIR (UTC) (F) (DEG/KT/KT) (MB) (FT/S) (FT/S/D) 5E St. Marys GA 0830 49 N/A 1/10 Frying Pan Buoy 0850 54 56 280/ 10/ 12 1023.7R 3/ 5 2/220/ 5 Buoy 41025 0850 59 69 290/ 16/ 19 1022.3F 4/ 6 2/130/10 Cape Lookout NC 0800 240/ 7/ 8 1023.0F Buoy 41002 0850 67 70 230/ 10/ 14 1023.4S 4/10 3/ 90/10 Buoy 41010 NOT AVBL St Augustine FL 0900 51 51 350/ 9/ 10 1024.1F $$

USA.gov is the U.S. government's official web portal to all federal, state and local government web resources and services.